Regional Weather Roundup
Issued by NWS

Home | Current Version | Previous Version | Text Only | Print | Product List | Glossary Off
Versions: 1 2 3 4 5 6 7 8 9 10 11 12 13 14 15 16 17 18 19 20 21 22 23 24 25 26 27 28

000
ASUS45 KTFX 190610
RWRMT
MONTANA REGIONAL WEATHER ROUNDUP
NATIONAL WEATHER SERVICE GREAT FALLS MT
1100 PM MST SAT FEB 18 2017

NOTE: "FAIR" INDICATES FEW OR NO CLOUDS BELOW 12000 FEET WITH NO
SIGNIFICANT WEATHER AND/OR OBSTRUCTIONS TO VISIBILITY.

MTZ001>007-043-190700-
WEST OF THE DIVIDE

CITY           SKY/WX    TMP DP  RH WIND       PRES   REMARKS
KALISPELL      LGT RAIN  33  33 100 S3        29.38R FOG
MISSOULA       CLOUDY    37  31  78 S6        29.38R
BUTTE          CLOUDY    41  28  60 SW14      29.43F
MULLAN PASS    SNOW      29  29 100 CALM      29.36R VSB 1/2
ANACONDA         N/A     39  28  65 SE5       29.42S
DEER LODGE       N/A     43  30  61 S6        29.43S
EUREKA           N/A     32  30  93 CALM      29.40S
HAMILTON         N/A     48  30  49 S8        29.37R
LIBBY            N/A     34  32  93 CALM      29.39R
PLAINS           N/A     33  28  82 CALM      29.44
RONAN            N/A     34  30  85 CALM      29.47S
$$

MTZ008-052>055-190700-
SOUTHWEST MONTANA

CITY           SKY/WX    TMP DP  RH WIND       PRES   REMARKS
BOZEMAN        CLOUDY    38  29  70 NE7       29.45F
DILLON         CLOUDY    40  29  64 SW10      29.44S
W YELLOWSTONE  MIX PCPN  34  32  93 S6        29.58S WCI  29
ENNIS          MOCLDY    43  30  61 S21G26    29.50F
THREE FORKS      N/A     46 -37   2 S15       29.49S
$$

MTZ009-010-012-014-046-048-049-054-190700-
EAST SLOPES AND CENTRAL MONTANA

CITY           SKY/WX    TMP DP  RH WIND       PRES   REMARKS
CUT BANK       PTCLDY    32  31  96 W3        29.34S
GREAT FALLS    CLOUDY    47  30  51 S15       29.37R
MALMSTROM AFB  CLOUDY    47  30  52 S7        29.37S
HELENA         CLOUDY    43  32  65 E10       29.40S
AUGUSTA        MOCLDY    38  31  76 SE8       29.34F WCI  32
BOWMANS CRNR     N/A     42  30  61 S16       29.33F
CHOTEAU          N/A     32  30  93 CALM      29.36F
CONRAD           N/A     29  29 100 CALM      29.43S
POWER            N/A     42  31  65 SE12      29.35S
RAYNESFORD     MOCLDY    49  29  44 SE8       29.39S
ULM              N/A     46  32  57 MISG      29.37S
$$

MTZ011-013-016-021-045-047-050-051-190700-
NORTH CENTRAL MONTANA

CITY           SKY/WX    TMP DP  RH WIND       PRES   REMARKS
HAVRE          CLOUDY    36  32  85 NE13      29.39S WCI  27
LEWISTOWN      CLOUDY    43  29  57 E7        29.43R
N BAR RANCH      N/A     45  30  57 S18       29.48S
CHINOOK          N/A     36  30  80 E20G26    29.43F WCI  25
DENTON         CLOUDY    44  32  64 S8        29.38F
FORT BENTON      N/A    N/A N/A N/A MISG      29.39R
GEYSER         MOCLDY    42  29  61 S14       29.39F
GRASS RANGE    MOCLDY    37  31  78 W8        29.42S WCI  31
JUDITH GAP     MOCLDY    39  30  70 SW12      29.45R WCI  32
ROY            MOCLDY    44  34  68 MISG      29.41F
STANFORD       MOCLDY    41  29  64 CALM      29.41F
WINIFRED       CLOUDY    40  32  71 SE7       29.41S
$$

MTZ017>020-022>027-061-062-190700-
NORTHEAST MONTANA

CITY           SKY/WX    TMP DP  RH WIND       PRES   REMARKS
GLASGOW        CLOUDY    34  30  85 E17G24    29.54F WCI  23
JORDAN           N/A     33  30  88 E6        29.51F WCI  28
SIDNEY         CLOUDY    30  28  92 NE6       29.63F WCI  24
WOLF POINT     CLOUDY    32  29  88 E12       29.61F WCI  23
PLENTYWOOD       N/A     32  30  93 E9        29.65F WCI  24
POPLAR           N/A     32  28  86 E10       29.62F WCI  24
SCOBEY           N/A     31  24  75 CALM      29.63
$$

MTZ028>42-056>058-190700-
SOUTHCENTRAL AND SOUTHEAST MONTANA

CITY           SKY/WX    TMP DP  RH WIND       PRES   REMARKS
BAKER          CLOUDY    31  28  89 SE8       29.58F WCI  23
BILLINGS       CLOUDY    42  34  73 N3        29.48S
LIVINGSTON     CLOUDY    46  30  53 SW14      29.46F
MILES CITY     CLOUDY    36  31  82 NE6       29.53F WCI  31
BIG TIMBER     CLOUDY    41  30  65 CALM      29.50S
EKALAKA          N/A     44  30  58 SE13      29.58F
FORSYTH          N/A     37  34  87 E3        29.51F
HARLOWTON      MOCLDY    38  31  75 E9        29.45S WCI  31
LAUREL           N/A     42  25  51 CALM      29.51F
$$

REGIONAL REPORTS...DAKOTAS

CITY           SKY/WX    TMP DP  RH WIND       PRES   REMARKS
WILLISTON      CLOUDY    33  29  85 E6        29.67S WCI  28
MINOT          CLOUDY    34  31  88 E6        29.71F WCI  29
DICKINSON      CLOUDY    27  25  92 E8        29.60F WCI  19
BEACH            N/A    N/A N/A N/A MISG        N/A
CROSBY           N/A     32  32 100 E12       29.71F WCI  23
TIOGA            N/A     30  30 100 E10       29.70R WCI  21
WATFORD CITY     N/A     30  30 100 CALM      29.66F
BISMARCK       CLOUDY    34  32  92 E10       29.68S WCI  26
GRAND FORKS    CLOUDY    34  29  82 NE5       29.82R
FARGO          PTCLDY    34  34 100 E6        29.79F WCI  29
BUFFALO SD       N/A     44  34  67 CALM      29.53F
RAPID CITY     MOCLDY    47  30  51 S7        29.63S
$$

REGIONAL REPORTS...WYOMING/IDAHO/WASHINGTON

CITY           SKY/WX    TMP DP  RH WIND       PRES   REMARKS
GILLETTE       CLEAR     47  33  58 S20G30    29.56F
SHERIDAN       PTCLDY    34  30  85 VRB5      29.53S
BUFFALO WY     CLOUDY    50  26  39 S8        29.55F
CODY           CLOUDY    38  29  70 SE8       29.55S
YELLOWSTONE LA   N/A     31  30  96 CALM      29.62S
IDAHO FALLS    LGT RAIN  39  37  92 SW8       29.56F
SALMON         MOCLDY    37  32  81 S7        29.43S
BOISE          CLOUDY    43  41  93 CALM      29.50S
SPOKANE        CLOUDY    33  31  92 S6        29.43R WCI  28
$$

REGIONAL REPORTS...ALBERTA

CITY           SKY/WX    TMP DP  RH WIND       PRES   REMARKS
EDMONTON       MIX PCPN  32  32 100 E14       29.44F VSB 3/4 WCI  22
CALGARY        CLOUDY    30  28  93 S6        29.34F FOG     WCI  24
LETHBRIDGE     FOG       34 N/A N/A W5        29.36S VSB 1/4
MEDICINE HAT   MOCLDY    41  32  70 NE5       29.37F
WATERTON GATE    N/A     30  30 100 NE1         N/A
CARDSTON         N/A     30  28  93 NW1         N/A
MILK RIVER       N/A     36  32  87 S10         N/A  WCI  28
$$

REGIONAL REPORTS...SASKATCHEWAN

CITY           SKY/WX    TMP DP  RH WIND       PRES   REMARKS
SWIFT CURRENT  CLOUDY    34  30  86 SE20G28   29.51F WCI  22
REGINA         PTCLDY    34  30  86 SE15      29.68F WCI  24
SASKATOON      CLOUDY    32  30  93 E8        29.69F WCI  25
VAL MARIE        N/A     36  28  75 SE14G20     N/A  WCI  27
ROCKGLEN         N/A     30  28  93 SE12G18     N/A  WCI  21
ASSINIBOIA       N/A     34  32  93 E14G20      N/A  WCI  24
$$




USA.gov is the U.S. government's official web portal to all federal, state and local government web resources and services.